STARLINK-32616, 61920

Orbit data source: Space-Track

STARLINK-32616, 61920 is a payload satellite owned by SpaceX/Seattle (US) in LEO that was launched on Mon, 11 Nov 2024 UTC via an FALCON 9 launch vehicle from the Air Force Eastern Test Range (AFETR). Payload-class satellites include a variety of spacecraft equipped with specific instruments for various scientific and technological missions. These include communications satellites like Starlink; space stations such as the ISS; scientific satellites like the Hubble; Earth observation satellites from companies like Planet Labs, Umbra, and HawkEye 360; GPS; miniature CubeSats for education and research; and military/defense satellites.

Loading next visibility...
Identifier
61920, 2024-207J
Orbit
LEO
Country
Flag of USUS
Related business
Manufacturer
SpaceX/Seattle
Mission
Operational Commercial Communications
Bus & Motor
STARLINK V2M, Unknown motor
Mass
730 kg wet, ~700 kg dry
Launch date (UTC)
2024-11-11 (2 years ago)
Launch vehicle
FALCON 9
Launch site
Air Force Eastern Test Range (AFETR)
Object type
Payload
Rocket body
Debris
Shape & HBR
Box + 2 Pan, 17.7 m
Radar Cross Section
33.884 m², Large (>1 m²)

Expand to show TLE details & history
Last TLE update: 23 hours ago

TLE from 23 hours ago
0 STARLINK-32616
1 61920U 24207J   26206.40784897  .00019982  00000-0  73343-3 0  9998
2 61920  42.9994 224.0387 0001965 284.3671  75.6962 15.27590993 95789
Epoch: 2026-07-25T09:47Z
TLE epoch observation values (Epoch: 2026-07-25T09:47:18.151Z)
Latitude
-0.00003°
Longitude
134.09248°
Altitude
482.459 km
Speed
7.626 km/s
True Right ascension
14h 56m 09s
True Declination
0° 00' 00"
Sunlit
Object was in daylight at epoch
Visualization orbit readout
Latitude
Unknown
Longitude
Unknown
Altitude
Unknown
Speed
Unknown
Apparent Right ascension
Unknown
Apparent Declination
Unknown
Sunlit
N/A
Visualization observer readout
Local Sidereal Time
22:16:57
Azimuth
Unknown
Elevation
Unknown
Doppler factor
Unknown
Orbital elements
Apogee altitude
486.31 km
Perigee altitude
483.613 km
Semi-major axis
6,863.098 km
Eccentricity
0.0002
Inclination
42.9994°
RAAN
224.0387°
Arg. of periapsis
284.3671°
True anomaly
75.71802°
Mean anomaly
75.6962°
Eccentric anomaly
75.70711°
Mean motion
3.81736 °/min
Orbital period
94.31 mins
BSTAR
0.00073343
Loading maneuver chart data...
Computing Atmospheric mass density...
Loading historical data...
Loading historical data...
Loading historical data...
Loading historical data...
Loading historical data...
Loading historical data...
Loading historical data...

Documentation

Showing up to 5 results
|